Location: Gloden
(48.4833°N, 15.3167°E)
Time: 05:28:53
(UTC+00:00)

NOSS 3-2 (A) - Pass Details

Date: 15 December 2019
Orbit: 814 x 1394 km, 63.4° (Epoch: 18 January)

Event Time Altitude Azimuth Distance (km) Brightness Sun altitude
Rises 05:28:41 0° 226° (SW) 3,408 6.1 -11.7°
Reaches altitude 10° 05:31:02 10° 228° (SW) 2,521 5.4 -11.3°
Maximum altitude 05:36:52 74° 314° (NW) 988 3.4 -10.4°
Drops below altitude 10° 05:43:36 10° 40° (NE) 2,886 6.2 -9.4°
Sets 05:46:27 0° 42° (NE) 3,936 6.9 -9.0°
